Regional Weather Roundup
Issued by NWS Cleveland, OH

Home | Current Version | Previous Version | Text Only | Print | Product List | Glossary On
Versions: 1 2 3 4 5 6 7 8 9 10 11 12 13 14 15 16 17 18 19 20 21 22 23 24 25 26 27 28 29 30 31 32 33 34 35 36 37 38 39 40 41 42 43 44 45 46 47 48 49 50
000
ASUS41 KCLE 301302
RWRCLE
OHIO REGIONAL WEATHER ROUNDUP
NATIONAL WEATHER SERVICE CLEVELAND, OH
900 AM EDT SUN AUG 30 2015

NOTE: "FAIR" INDICATES FEW OR NO CLOUDS BELOW 12,000 FEET WITH NO
SIGNIFICANT WEATHER AND/OR OBSTRUCTIONS TO VISIBILITY.

OHZ001>008-015>018-024>027-034-035-043-044-301400-
   NORTHWEST OHIO

CITY           SKY/WX    TMP DP  RH WIND       PRES   REMARKS
DEFIANCE       MOSUNNY   71  68  90 CALM      30.07S FOG
FINDLAY        MOSUNNY   70  67  90 S3        30.08R
TOLEDO EXPRESS CLOUDY    69  68  96 CALM      30.07S FOG
TOLEDO EXEC    CLOUDY    69  66  90 SE5       30.09S
LIMA           CLOUDY    69  66  90 S6        30.09S
$$

OHZ009>014-019>023-028>033-038-089-301400-
   NORTHEAST OHIO

CITY           SKY/WX    TMP DP  RH WIND       PRES   REMARKS
CLE-HOPKINS    CLOUDY    68  66  93 SW5       30.13R
CLE-LAKEFRONT  CLOUDY    70  67  90 S6        30.09R FOG
CUY CO. ARPT   CLOUDY    70  68  94 S7        30.11R
LORAIN-ELYRIA  LGT RAIN  68  66  93 CALM      30.11S FOG
ASHTABULA      CLOUDY    67  67 100 SW3       30.12R FOG
AKRON-CANTON   CLOUDY    68  65  90 S7        30.13R FOG
WOOSTER        CLOUDY    68  66  93 S5        30.13R FOG
MANSFIELD      CLOUDY    69  67  93 S10       30.12R
YOUNGSTOWN     CLOUDY    68  66  93 VRB5      30.12S FOG
$$

OHZ042-051>053-060>062-070>072-077>081-301400-
  SOUTHWEST OHIO

CITY           SKY/WX    TMP DP  RH WIND       PRES   REMARKS
CINC-COVINGTON PTSUNNY   69  67  93 S6        30.12R
CINC-LUNKEN    MOSUNNY   67  67 100 CALM      30.12S FOG
HAMILTON       MOSUNNY   73  68  84 VRB3      30.11S
DAYTON         CLOUDY    70  68  93 S7        30.12R
WRIGHT-PAT AFB PTSUNNY   70  69  97 S5        30.10R
DAYTON GENERAL PTSUNNY   70  67  90 S7        30.11R
WILMINGTON     PTSUNNY   70  66  87 S8        30.12S
$$

OHZ036-037-039>041-045>050-054>059-063>069-073>076-082>088-301400-
  CENTRAL AND SOUTHEAST OHIO

CITY           SKY/WX    TMP DP  RH WIND       PRES   REMARKS
COLUMBUS       CLOUDY    69  68  96 SE5       30.11S
OSU AIRPORT    CLOUDY    69  66  90 S6        30.10F
BOLTON FIELD   MOSUNNY   68  68 100 S3        30.12F
RICKENBACK AFB CLOUDY    68  66  94 CALM      30.11S
NEWARK         CLOUDY    68  66  93 CALM      30.13R FOG
MARION         CLOUDY    69  66  90 S8        30.11R FOG
LANCASTER      PTSUNNY   72  66  81 S3        30.12S
ZANESVILLE     MOSUNNY   70  64  81 MISG      30.14R
NEW PHILLY     PTSUNNY   68  67  96 SE5       30.13S
$$



USA.gov is the U.S. government's official web portal to all federal, state and local government web resources and services.